CZ-6A DEB

Satellite information

Favourite Embed

Satellite Type and Status

DEBRISIN ORBIT

Key statistics

Satellite CZ-6A DEB at a glance.

Uptime

969

Days in orbit

Revolutions

≈ 14.1

Per day

Orbit

SSO

Sun Synchronous Orbit

Inclination

98.8

Latest

Satellite identification and parameters

Extended collection of information and parameters for CZ-6A DEB.

Object identification

Identified? True

Debris? True

Object name: CZ-6A DEB

International designator: 2022-151AHC

Object number (NORAD): 56676

Object ID (CCSDS): 56676

Country: PEOPLES REPUBLIC OF CHINA (PRC)

Current information (Y/N): Y

RCS size: SMALL

Orbital parameters

Period: 102.153 minutes

Inclination: 98.8463 deg

SMA: 7238.69 km

Apoapsis: 892.294 km

Periapsis: 828.816 km

RAAN: 190.7837 deg

Eccentricy: 0.0043846

Argument of periapsis: 234.4863 deg

Mean anomaly: 125.2214 deg

Mean motion: 14.09654855 rev/day

Mean motion (dot): 0.00000192 rev/day2

B* drag term: 0.00013347 1/REarth

Two-line elements (TLE)

Creation date: July 6, 2025, 6:05 p.m.

Reference frame: TEME

Reference center: EARTH

Epoch: July 6, 2025, 10:38 a.m. UTC

TLE line 0: 0 CZ-6A DEB

TLE line 1: 1 56676U 22151AHC 25187.44368582 .00000192 00000-0 13347-3 0 9997

TLE line 2: 2 56676 98.8463 190.7837 0043846 234.4863 125.2214 14.09654855113111

Live tracking on map

Real-time ground track for satellite CZ-6A DEB.

In-orbit conjunctions

A list of the most updated potential collisions computed for object CZ-6A DEB.

Target Orbit TCA Probability of collision Miss distance Type
DELTA 1 DEB SSO 2024-12-15 19:18:36 0.0003929718 80.0 (m) DEBRIS
COSMOS 1275 DEB LEO 2024-12-06 09:37:34 0.0001184602 543.0 (m) DEBRIS
CZ-6A R/B SSO 2024-11-21 05:02:51 0.0001433951 585.0 (m) ROCKET BODY

Associated space launch

Chinese satellite reported for atmospheric/ocean/environmental/spatial parameter research purposes, details TBD.

CZ-6A DEB was lifted into orbit during the mission ‘Long March 6A | Yunhai 3’, on board a Long March 6A space rocket.

The launch took place on Nov. 11, 2022, 10:52 p.m. from Launch Complex 9A.

For more information about the launch, click the button.

Launch to space Long March 6A | Yunhai 3
Long March 6A | Yunhai 3

Agency: N/A

Status: Launch Successful

Launch date: Nov. 11, 2022, 10:52 p.m. UTC

Rocket: Long March 6A

Launch pad: Launch Complex 9A

Location: Taiyuan Satellite Launch Center, People's Republic of China

...

Latest news about this satellite

There are no fresh news available about this satellite. Check back as we update our databases every day.


Newsletter sign-up

Weekly statistics, charts and insights to help you stay on top of the space industry.